Madison, MN

7:42 PM CDT on August 21, 2017 (GMT -0500)
Madison-Lac Qui Parle County

Weather History for KDXX - February, 2014

Change the Weather History Date:

Monday, February 24, 2014

  Actual Average (KAQP) Record (KAQP)
Temperature  
Mean Temperature 8 °F -  
Max Temperature 12 °F 26 °F 53 °F (1998)
Min Temperature 3 °F 11 °F -11 °F (2003)
Degree Days  
Heating Degree Days 58    
Moisture  
Dew Point 2 °F    
Average Humidity 74    
Maximum Humidity 85    
Minimum Humidity 62    
Precipitation  
Precipitation 0.00 in - - ()
Sea Level Pressure  
Sea Level Pressure 30.36 in    
Wind  
Wind Speed 8 mph (NNW)    
Max Wind Speed 15 mph    
Max Gust Speed 20 mph    
Visibility 8 miles    
Events Snow    
Averages and records for this station are not official NWS values.
T = Trace of Precipitation, MM = Missing Value Source: NWS Daily Summary

Daily Weather History Graph

Daily Weather History Graph

Search for Another Location

Airport or City:

Trip Planner

Search our weather history database for the weather conditions in past years. The results will help you decide how hot, cold, wet, or windy it might be!

Date:

Astronomy

Feb. 24, 2014 Rise Set
Actual Time 7:11 AM CST 6:05 PM CST
Civil Twilight 6:41 AM CST 6:35 PM CST
Nautical Twilight 6:07 AM CST 7:09 PM CST
Astronomical Twilight 5:33 AM CST 7:43 PM CST
Moon 3:18 AM CST (2/24) 12:59 PM CST (2/24)
Length of Visible Light 11h 53m
Length of Day
10h 54m
Waning Crescent, 28% of the Moon is Illuminated
Feb 24
Waning Crescent
Mar 1
New
Mar 8
First Quarter
Mar 16
Full
Mar 23
Last Quarter

Hourly Weather History & Observations

Time (CST) Temp. Windchill Dew Point Humidity Pressure Visibility Wind Dir Wind Speed Gust Speed Precip Events Conditions
12:14 AM 10.4 °F -1.5 °F 5.0 °F 79% 30.35 in 10.0 mi WNW 8.1 mph - N/A   Clear
12:34 AM 10.4 °F -2.4 °F 3.2 °F 73% 30.35 in 10.0 mi WNW 9.2 mph - N/A   Clear
12:54 AM 10.4 °F -1.5 °F 3.2 °F 73% 30.35 in 10.0 mi WNW 8.1 mph - N/A   Clear
1:14 AM 8.6 °F -3.7 °F 3.2 °F 79% 30.35 in 10.0 mi West 8.1 mph - N/A   Clear
1:34 AM 8.6 °F -6.3 °F 3.2 °F 79% 30.35 in 10.0 mi WNW 11.5 mph - N/A   Clear
1:53 AM 8.6 °F -5.5 °F 1.4 °F 73% 30.35 in 10.0 mi WNW 10.4 mph - N/A   Clear
2:14 AM 8.6 °F -5.5 °F 1.4 °F 73% 30.35 in 10.0 mi WNW 10.4 mph - N/A   Clear
2:33 AM 8.6 °F -5.5 °F 1.4 °F 73% 30.35 in 10.0 mi WNW 10.4 mph - N/A   Clear
2:54 AM 8.6 °F -3.7 °F 1.4 °F 73% 30.34 in 10.0 mi NW 8.1 mph - N/A   Clear
3:14 AM 8.6 °F -3.7 °F 1.4 °F 73% 30.35 in 10.0 mi NW 8.1 mph - N/A   Clear
3:34 AM 6.8 °F -4.8 °F 1.4 °F 79% 30.34 in 10.0 mi NW 6.9 mph - N/A   Clear
3:53 AM 6.8 °F -2.0 °F -0.4 °F 72% 30.33 in 10.0 mi NW 4.6 mph - N/A   Clear
4:14 AM 6.8 °F -3.5 °F -0.4 °F 72% 30.34 in 10.0 mi NW 5.8 mph - N/A   Clear
4:34 AM 6.8 °F -3.5 °F -0.4 °F 72% 30.33 in 10.0 mi NW 5.8 mph - N/A   Clear
4:53 AM 6.8 °F -3.5 °F -0.4 °F 72% 30.34 in 10.0 mi WNW 5.8 mph - N/A   Clear
5:14 AM 5.0 °F -2.1 °F -0.4 °F 78% 30.35 in 10.0 mi West 3.5 mph - N/A   Clear
5:34 AM 3.2 °F -4.2 °F -0.4 °F 85% 30.35 in 10.0 mi WNW 3.5 mph - N/A   Clear
5:53 AM 3.2 °F -7.8 °F -2.2 °F 78% 30.35 in 10.0 mi NW 5.8 mph - N/A   Clear
6:14 AM 3.2 °F -6.2 °F -2.2 °F 78% 30.35 in 10.0 mi NW 4.6 mph - N/A   Clear
6:34 AM 5.0 °F -2.1 °F -2.2 °F 72% 30.35 in 10.0 mi WNW 3.5 mph - N/A   Clear
6:53 AM 5.0 °F -5.6 °F -2.2 °F 72% 30.36 in 10.0 mi NW 5.8 mph - N/A   Clear
7:14 AM 5.0 °F -4.1 °F -2.2 °F 72% 30.36 in 10.0 mi WNW 4.6 mph - N/A   Clear
7:34 AM 5.0 °F -2.1 °F -2.2 °F 72% 30.36 in 10.0 mi NW 3.5 mph - N/A   Clear
7:53 AM 5.0 °F -6.9 °F -2.2 °F 72% 30.35 in 10.0 mi NNW 6.9 mph - N/A   Clear
8:14 AM 5.0 °F -9.1 °F -2.2 °F 72% 30.36 in 10.0 mi NNW 9.2 mph - N/A   Clear
8:34 AM 6.8 °F -6.9 °F -2.2 °F 67% 30.36 in 10.0 mi North 9.2 mph - N/A   Clear
8:53 AM 6.8 °F -3.5 °F -2.2 °F 67% 30.37 in 10.0 mi NNW 5.8 mph - N/A   Clear
9:14 AM 6.8 °F -2.0 °F -0.4 °F 72% 30.36 in 10.0 mi NNW 4.6 mph - N/A   Clear
9:34 AM 6.8 °F -2.0 °F -0.4 °F 72% 30.36 in 10.0 mi NNW 4.6 mph - N/A   Clear
9:53 AM 6.8 °F -2.0 °F -0.4 °F 72% 30.36 in 10.0 mi NNW 4.6 mph - N/A   Clear
10:14 AM 8.6 °F 0.1 °F -0.4 °F 67% 30.36 in 10.0 mi North 4.6 mph - N/A   Clear
10:34 AM 8.6 °F 0.1 °F 1.4 °F 73% 30.36 in 10.0 mi NNW 4.6 mph - N/A   Clear
10:53 AM 8.6 °F -1.3 °F 1.4 °F 73% 30.36 in 10.0 mi NNW 5.8 mph - N/A   Clear
11:14 AM 10.4 °F 2.2 °F 1.4 °F 67% 30.37 in 10.0 mi NNW 4.6 mph - N/A   Clear
11:34 AM 10.4 °F -1.5 °F 1.4 °F 67% 30.36 in 10.0 mi North 8.1 mph - N/A   Clear
11:53 AM 10.4 °F -1.5 °F 1.4 °F 67% 30.36 in 10.0 mi North 8.1 mph - N/A   Clear
12:14 PM 10.4 °F -0.4 °F 1.4 °F 67% 30.36 in 10.0 mi North 6.9 mph - N/A   Clear
12:34 PM 10.4 °F 2.2 °F 1.4 °F 67% 30.35 in 10.0 mi North 4.6 mph - N/A   Clear
12:53 PM 10.4 °F 0.8 °F 3.2 °F 73% 30.34 in 10.0 mi North 5.8 mph - N/A   Clear
1:14 PM 10.4 °F -0.4 °F 1.4 °F 67% 30.34 in 10.0 mi NNW 6.9 mph - N/A   Clear
1:34 PM 12.2 °F 6.1 °F 1.4 °F 62% 30.33 in 10.0 mi NW 3.5 mph - N/A   Clear
1:53 PM 12.2 °F 1.7 °F 3.2 °F 67% 30.33 in 10.0 mi North 6.9 mph - N/A   Clear
2:14 PM 12.2 °F 6.1 °F 3.2 °F 67% 30.33 in 10.0 mi North 3.5 mph - N/A   Clear
2:34 PM 12.2 °F 1.7 °F 3.2 °F 67% 30.32 in 10.0 mi North 6.9 mph - N/A   Clear
2:53 PM 12.2 °F 0.7 °F 3.2 °F 67% 30.31 in 10.0 mi North 8.1 mph - N/A   Clear
3:14 PM 12.2 °F 0.7 °F 3.2 °F 67% 30.32 in 7.0 mi North 8.1 mph - N/A   Clear
3:34 PM 12.2 °F 1.7 °F 5.0 °F 73% 30.32 in 3.0 mi NNE 6.9 mph - N/A Snow Light Snow
3:54 PM 12.2 °F 1.7 °F 6.8 °F 79% 30.32 in 2.5 mi North 6.9 mph - N/A Snow Light Snow
4:14 PM 12.2 °F -1.0 °F 6.8 °F 79% 30.33 in 2.0 mi North 10.4 mph - N/A Snow Light Snow
4:33 PM 12.2 °F -0.2 °F 6.8 °F 79% 30.33 in 1.5 mi NNW 9.2 mph - N/A Snow Light Snow
4:54 PM 12.2 °F -1.8 °F 6.8 °F 79% 30.34 in 1.2 mi NNW 11.5 mph - N/A Snow Light Snow
5:13 PM 12.2 °F -1.8 °F 6.8 °F 79% 30.34 in 1.2 mi NNW 11.5 mph - N/A Snow Light Snow
5:34 PM 12.2 °F -1.8 °F 6.8 °F 79% 30.35 in 1.0 mi NNW 11.5 mph - N/A Snow Light Snow
5:54 PM 12.2 °F -1.8 °F 6.8 °F 79% 30.35 in 1.2 mi North 11.5 mph - N/A Snow Light Snow
6:13 PM 12.2 °F -3.1 °F 6.8 °F 79% 30.36 in 3.0 mi North 13.8 mph - N/A Snow Light Snow
6:34 PM 10.4 °F -2.4 °F 6.8 °F 85% 30.36 in 4.0 mi North 9.2 mph - N/A Snow Light Snow
6:54 PM 10.4 °F -2.4 °F 6.8 °F 85% 30.37 in 3.0 mi North 9.2 mph - N/A Snow Light Snow
7:13 PM 10.4 °F -3.3 °F 6.8 °F 85% 30.37 in 2.5 mi NNW 10.4 mph - N/A Snow Light Snow
7:34 PM 10.4 °F -1.5 °F 6.8 °F 85% 30.37 in 5.0 mi NNW 8.1 mph - N/A Snow Light Snow
7:54 PM 10.4 °F -3.3 °F 5.0 °F 79% 30.37 in 4.0 mi NW 10.4 mph - N/A Snow Light Snow
8:13 PM 8.6 °F -5.5 °F 3.2 °F 79% 30.37 in 10.0 mi NNW 10.4 mph - N/A   Clear
8:33 PM 8.6 °F -3.7 °F 3.2 °F 79% 30.38 in 10.0 mi NNW 8.1 mph - N/A   Clear
8:54 PM 8.6 °F -2.6 °F 3.2 °F 79% 30.39 in 10.0 mi NW 6.9 mph - N/A Snow Light Snow
9:13 PM 8.6 °F -3.7 °F 3.2 °F 79% 30.39 in 7.0 mi NW 8.1 mph - N/A Snow Light Snow
9:33 PM 8.6 °F -2.6 °F 3.2 °F 79% 30.40 in 10.0 mi NW 6.9 mph - N/A   Clear
9:54 PM 6.8 °F -6.9 °F 3.2 °F 85% 30.40 in 7.0 mi NW 9.2 mph - N/A   Clear
10:14 PM 8.6 °F -5.5 °F 3.2 °F 79% 30.40 in 10.0 mi NW 10.4 mph - N/A   Scattered Clouds
10:33 PM 8.6 °F -8.3 °F 1.4 °F 73% 30.41 in 10.0 mi NNW 15.0 mph 19.6 mph N/A   Mostly Cloudy
10:54 PM 6.8 °F -6.9 °F -0.4 °F 72% 30.40 in 10.0 mi NNW 9.2 mph - N/A   Scattered Clouds
11:14 PM 5.0 °F -6.9 °F -0.4 °F 78% 30.41 in 10.0 mi NW 6.9 mph - N/A   Clear
11:33 PM 3.2 °F -9.1 °F -2.2 °F 78% 30.40 in 10.0 mi NW 6.9 mph - N/A   Clear
11:54 PM 3.2 °F -9.1 °F -2.2 °F 78% 30.40 in 10.0 mi NW 6.9 mph - N/A   Clear